| time (UTC) | temp F | wind direction | speed knots | gust knots | rain 1hr in | rain 24hr in | rain mn in | humidity % | barometer mb |
| 20260504215012 | 73 | 254 | 4.3 | 10.4 | 0.00 | 0.00 | 0.00 | 25 | 1007.5 |
| 20260504214527 | 74 | 279 | 7.0 | 10.4 | 0.00 | 0.00 | 0.00 | 25 | 1007.5 |
| 20260504214007 | 74 | 245 | 6.1 | 9.6 | 0.00 | 0.00 | 0.00 | 24 | 1007.5 |
| 20260504213516 | 73 | 249 | 2.6 | 8.7 | 0.00 | 0.00 | 0.00 | 25 | 1007.6 |
| 20260504213042 | 73 | 307 | 1.7 | 10.4 | 0.00 | 0.00 | 0.00 | 24 | 1007.7 |
| 20260504212515 | 73 | 255 | 4.3 | 10.4 | 0.00 | 0.00 | 0.00 | 28 | 1007.8 |
| 20260504212014 | 72 | 325 | 4.3 | 8.7 | 0.00 | 0.00 | 0.00 | 27 | 1007.8 |
| 20260504211534 | 73 | 285 | 3.5 | 11.3 | 0.00 | 0.00 | 0.00 | 24 | 1008.0 |
| 20260504211010 | 74 | 238 | 5.2 | 11.3 | 0.00 | 0.00 | 0.00 | 27 | 1008.0 |
| 20260504210506 | 73 | 275 | 4.3 | 11.3 | 0.00 | 0.00 | 0.00 | 28 | 1008.0 |
| 20260504205506 | 74 | 228 | 6.1 | 9.6 | 0.00 | 0.00 | 0.00 | 26 | 1008.1 |
| 20260504205009 | 74 | 265 | 5.2 | 9.6 | 0.00 | 0.00 | 0.00 | 26 | 1008.2 |
| 20260504204534 | 72 | 215 | 1.7 | 7.8 | 0.00 | 0.00 | 0.00 | 26 | 1008.3 |
| 20260504204014 | 71 | 106 | 0.0 | 7.8 | 0.00 | 0.00 | 0.00 | 24 | 1008.4 |
| 20260504203511 | 71 | 227 | 3.5 | 7.8 | 0.00 | 0.00 | 0.00 | 25 | 1008.5 |
| 20260504203028 | 71 | 247 | 1.7 | 7.0 | 0.00 | 0.00 | 0.00 | 26 | 1008.5 |
| 20260504202510 | 72 | 348 | 1.7 | 6.1 | 0.00 | 0.00 | 0.00 | 28 | 1008.5 |
| 20260504202010 | 72 | 307 | 3.5 | 7.0 | 0.00 | 0.00 | 0.00 | 28 | 1008.6 |
| 20260504201527 | 72 | 299 | 2.6 | 7.0 | 0.00 | 0.00 | 0.00 | 23 | 1008.7 |
| 20260504200514 | 71 | 197 | 1.7 | 7.8 | 0.00 | 0.00 | 0.00 | 33 | 1008.8 |
| 20260504200028 | 72 | 161 | 2.6 | 8.7 | 0.00 | 0.00 | 0.00 | 29 | 1008.8 |
| 20260504195511 | 72 | 249 | 5.2 | 8.7 | 0.00 | 0.00 | 0.00 | 31 | 1009.0 |
| 20260504195012 | 71 | 305 | 0.9 | 5.2 | 0.00 | 0.00 | 0.00 | 28 | 1009.0 |
| 20260504194524 | 72 | 219 | 2.6 | 8.7 | 0.00 | 0.00 | 0.00 | 32 | 1009.0 |
| 20260504194007 | 72 | 213 | 4.3 | 8.7 | 0.00 | 0.00 | 0.00 | 32 | 1009.0 |
| 20260504193507 | 71 | 270 | 2.6 | 7.0 | 0.00 | 0.00 | 0.00 | 29 | 1009.1 |
| 20260504193028 | 70 | 88 | 1.7 | 8.7 | 0.00 | 0.00 | 0.00 | 29 | 1009.2 |
| 20260504192510 | 71 | 157 | 4.3 | 8.7 | 0.00 | 0.00 | 0.00 | 29 | 1009.3 |
| 20260504192013 | 71 | 175 | 2.6 | 7.8 | 0.00 | 0.00 | 0.00 | 26 | 1009.3 |
| 20260504191529 | 71 | 159 | 4.3 | 7.8 | 0.00 | 0.00 | 0.00 | 27 | 1009.4 |
| 20260504191009 | 70 | 211 | 1.7 | 5.2 | 0.00 | 0.00 | 0.00 | 31 | 1009.4 |
| 20260504190510 | 70 | 307 | 2.6 | 7.0 | 0.00 | 0.00 | 0.00 | 33 | 1009.5 |
| 20260504190030 | 70 | 226 | 2.6 | 10.4 | 0.00 | 0.00 | 0.00 | 30 | 1009.6 |
| 20260504185511 | 70 | 251 | 3.5 | 10.4 | 0.00 | 0.00 | 0.00 | 32 | 1009.6 |
| 20260504185011 | 69 | 219 | 2.6 | 8.7 | 0.00 | 0.00 | 0.00 | 32 | 1009.6 |
| 20260504184530 | 69 | 243 | 2.6 | 8.7 | 0.00 | 0.00 | 0.00 | 29 | 1009.7 |
| 20260504184008 | 69 | 253 | 4.3 | 8.7 | 0.00 | 0.00 | 0.00 | 33 | 1009.8 |
| 20260504183512 | 69 | 146 | 1.7 | 7.0 | 0.00 | 0.00 | 0.00 | 31 | 1009.8 |
| 20260504183026 | 69 | 264 | 2.6 | 7.0 | 0.00 | 0.00 | 0.00 | 32 | 1009.9 |
| 20260504182508 | 68 | 243 | 3.5 | 6.1 | 0.00 | 0.00 | 0.00 | 35 | 1009.9 |
| 20260504182016 | 68 | 234 | 0.9 | 8.7 | 0.00 | 0.00 | 0.00 | 31 | 1010.0 |
| 20260504181526 | 68 | 308 | 1.7 | 8.7 | 0.00 | 0.00 | 0.00 | 34 | 1010.1 |
| 20260504181013 | 68 | 246 | 5.2 | 7.8 | 0.00 | 0.00 | 0.00 | 33 | 1010.2 |
| 20260504180512 | 67 | 22 | 1.7 | 7.8 | 0.00 | 0.00 | 0.00 | 31 | 1010.3 |
| 20260504180030 | 68 | 271 | 1.7 | 8.7 | 0.00 | 0.00 | 0.00 | 30 | 1010.2 |
| 20260504175509 | 68 | 173 | 5.2 | 8.7 | 0.00 | 0.00 | 0.00 | 31 | 1010.3 |
| 20260504175011 | 68 | 206 | 3.5 | 7.0 | 0.00 | 0.00 | 0.00 | 31 | 1010.3 |
| 20260504174530 | 67 | 241 | 2.6 | 7.0 | 0.00 | 0.00 | 0.00 | 32 | 1010.3 |
| 20260504174010 | 67 | 178 | 1.7 | 7.0 | 0.00 | 0.00 | 0.00 | 31 | 1010.3 |
| 20260504173508 | 66 | 313 | 3.5 | 7.8 | 0.00 | 0.00 | 0.00 | 30 | 1010.3 |
| 20260504173024 | 67 | 239 | 3.5 | 7.8 | 0.00 | 0.00 | 0.00 | 33 | 1010.3 |
| 20260504172509 | 66 | 249 | 0.9 | 7.0 | 0.00 | 0.00 | 0.00 | 35 | 1010.3 |
| 20260504172012 | 66 | 279 | 4.3 | 7.0 | 0.00 | 0.00 | 0.00 | 35 | 1010.5 |
| 20260504171510 | 65 | 245 | 3.5 | 6.1 | 0.00 | 0.00 | 0.00 | 38 | 1010.4 |
| 20260504171004 | 65 | 273 | 1.7 | 7.0 | 0.00 | 0.00 | 0.00 | 40 | 1010.4 |
| 20260504170505 | 64 | 260 | 3.5 | 7.0 | 0.00 | 0.00 | 0.00 | 41 | 1010.5 |
| 20260504151013 | 55 | 233 | 0.9 | 1.7 | 0.00 | 0.00 | 0.00 | 47 | 1010.7 |
| 20260504150510 | 55 | 223 | 0.9 | 1.7 | 0.00 | 0.00 | 0.00 | 47 | 1010.6 |
| 20260504141009 | 49 | 176 | 0.0 | 0.0 | 0.00 | 0.00 | 0.00 | 54 | 1010.7 |
| 20260504140508 | 48 | 176 | 0.0 | 0.0 | 0.00 | 0.00 | 0.00 | 57 | 1010.7 |
| 20260504130509 | 40 | 145 | 0.9 | 1.7 | 0.00 | 0.00 | 0.00 | 71 | 1010.5 |
| 20260504110507 | 40 | 342 | 0.9 | 1.7 | 0.00 | 0.00 | 0.00 | 69 | 1010.3 |
| 20260504100512 | 42 | 150 | 0.0 | 0.0 | 0.00 | 0.00 | 0.00 | 64 | 1010.1 |
| 20260504081527 | 46 | 9 | 0.0 | 2.6 | 0.00 | 0.00 | 0.00 | 56 | 1010.3 |
| 20260504081007 | 47 | 9 | 0.0 | 3.5 | 0.00 | 0.00 | 0.00 | 55 | 1010.3 |
| 20260504050504 | 52 | 21 | 0.9 | 2.6 | 0.00 | 0.00 | 0.00 | 47 | 1011.0 |
| 20260504050005 | 54 | 197 | 0.0 | 0.0 | 0.00 | 0.00 | 0.00 | 44 | 1010.9 |
| 20260504045504 | 53 | 197 | 0.0 | 0.0 | 0.00 | 0.00 | 0.00 | 43 | 1010.9 |
| 20260504045004 | 54 | 182 | 0.0 | 1.7 | 0.00 | 0.00 | 0.00 | 42 | 1010.9 |
| 20260504044515 | 55 | 169 | 0.0 | 1.7 | 0.00 | 0.00 | 0.00 | 40 | 1010.9 |
| 20260504044006 | 55 | 319 | 0.9 | 3.5 | 0.00 | 0.00 | 0.00 | 40 | 1010.9 |
| 20260504043506 | 54 | 319 | 1.7 | 3.5 | 0.00 | 0.00 | 0.00 | 41 | 1011.0 |
| 20260504043023 | 55 | 317 | 0.0 | 1.7 | 0.00 | 0.00 | 0.00 | 40 | 1011.0 |
| 20260504042507 | 55 | 134 | 0.0 | 1.7 | 0.00 | 0.00 | 0.00 | 38 | 1010.9 |
| 20260504042008 | 55 | 134 | 0.0 | 1.7 | 0.00 | 0.00 | 0.00 | 38 | 1010.9 |
| 20260504041519 | 55 | 140 | 0.9 | 1.7 | 0.00 | 0.00 | 0.00 | 38 | 1010.9 |
| 20260504041007 | 55 | 140 | 0.9 | 1.7 | 0.00 | 0.00 | 0.00 | 37 | 1010.9 |
| 20260504040503 | 56 | 136 | 0.0 | 1.7 | 0.00 | 0.00 | 0.00 | 38 | 1010.8 |
| 20260504040003 | 56 | 136 | 0.0 | 1.7 | 0.00 | 0.00 | 0.00 | 37 | 1010.8 |
| 20260504035505 | 56 | 135 | 0.9 | 1.7 | 0.00 | 0.00 | 0.00 | 37 | 1010.8 |
| 20260504035004 | 57 | 131 | 0.0 | 0.9 | 0.00 | 0.00 | 0.00 | 37 | 1010.9 |
| 20260504034506 | 57 | 130 | 0.9 | 0.9 | 0.00 | 0.00 | 0.00 | 36 | 1010.9 |
| 20260504034004 | 57 | 127 | 0.9 | 1.7 | 0.00 | 0.00 | 0.00 | 36 | 1010.8 |
| 20260504033504 | 57 | 127 | 0.9 | 1.7 | 0.00 | 0.00 | 0.00 | 36 | 1010.8 |
| 20260504033014 | 57 | 127 | 0.9 | 1.7 | 0.00 | 0.00 | 0.00 | 36 | 1010.8 |
| 20260504032506 | 58 | 139 | 0.9 | 1.7 | 0.00 | 0.00 | 0.00 | 35 | 1010.8 |
| 20260504032010 | 58 | 134 | 0.9 | 1.7 | 0.00 | 0.00 | 0.00 | 35 | 1010.8 |
| 20260504031522 | 59 | 144 | 0.0 | 1.7 | 0.00 | 0.00 | 0.00 | 34 | 1010.7 |
| 20260504031007 | 60 | 133 | 0.0 | 2.6 | 0.00 | 0.00 | 0.00 | 34 | 1010.7 |
| 20260504030507 | 60 | 137 | 0.9 | 2.6 | 0.00 | 0.00 | 0.00 | 33 | 1010.6 |
| 20260504030023 | 61 | 118 | 1.7 | 2.6 | 0.00 | 0.00 | 0.00 | 31 | 1010.6 |
| 20260504025507 | 62 | 130 | 0.9 | 1.7 | 0.00 | 0.00 | 0.00 | 30 | 1010.6 |
| 20260504025004 | 62 | 165 | 0.0 | 1.7 | 0.00 | 0.00 | 0.00 | 30 | 1010.5 |
| 20260504024507 | 62 | 165 | 0.0 | 1.7 | 0.00 | 0.00 | 0.00 | 29 | 1010.5 |
| 20260504024003 | 63 | 165 | 0.0 | 1.7 | 0.00 | 0.00 | 0.00 | 28 | 1010.6 |
| 20260504023506 | 64 | 165 | 0.0 | 1.7 | 0.00 | 0.00 | 0.00 | 27 | 1010.5 |
| 20260504023023 | 65 | 165 | 0.0 | 0.9 | 0.00 | 0.00 | 0.00 | 26 | 1010.5 |
| 20260504022508 | 65 | 165 | 0.0 | 0.9 | 0.00 | 0.00 | 0.00 | 25 | 1010.5 |
| 20260504022005 | 66 | 166 | 0.0 | 2.6 | 0.00 | 0.00 | 0.00 | 24 | 1010.4 |
| 20260504021518 | 67 | 175 | 0.0 | 2.6 | 0.00 | 0.00 | 0.00 | 23 | 1010.4 |
| 20260504021005 | 67 | 175 | 0.9 | 2.6 | 0.00 | 0.00 | 0.00 | 22 | 1010.5 |
| 20260504020508 | 68 | 182 | 0.9 | 3.5 | 0.00 | 0.00 | 0.00 | 22 | 1010.5 |
| 20260504020023 | 68 | 178 | 1.7 | 3.5 | 0.00 | 0.00 | 0.00 | 23 | 1010.5 |
| 20260504015507 | 68 | 172 | 1.7 | 4.3 | 0.00 | 0.00 | 0.00 | 23 | 1010.6 |
| 20260504015008 | 69 | 155 | 0.9 | 4.3 | 0.00 | 0.00 | 0.00 | 22 | 1010.5 |
| 20260504014523 | 70 | 170 | 1.7 | 4.3 | 0.00 | 0.00 | 0.00 | 21 | 1010.6 |
| 20260504014008 | 70 | 142 | 1.7 | 6.1 | 0.00 | 0.00 | 0.00 | 21 | 1010.6 |
| 20260504013508 | 70 | 154 | 3.5 | 6.1 | 0.00 | 0.00 | 0.00 | 21 | 1010.6 |
| 20260504013030 | 70 | 127 | 2.6 | 7.0 | 0.00 | 0.00 | 0.00 | 21 | 1010.7 |
| 20260504012511 | 70 | 157 | 2.6 | 7.8 | 0.00 | 0.00 | 0.00 | 21 | 1010.7 |
| 20260504012007 | 71 | 144 | 4.3 | 7.8 | 0.00 | 0.00 | 0.00 | 21 | 1010.8 |
| 20260504011523 | 71 | 175 | 3.5 | 7.8 | 0.00 | 0.00 | 0.00 | 20 | 1010.8 |
| 20260504011009 | 72 | 186 | 3.5 | 7.8 | 0.00 | 0.00 | 0.00 | 19 | 1010.8 |
| 20260504010512 | 72 | 142 | 4.3 | 7.0 | 0.00 | 0.00 | 0.00 | 20 | 1010.9 |
| 20260504010022 | 72 | 217 | 1.7 | 2.6 | 0.00 | 0.00 | 0.00 | 21 | 1011.0 |
| 20260504005506 | 73 | 218 | 0.9 | 2.6 | 0.00 | 0.00 | 0.00 | 20 | 1011.0 |
| 20260504005008 | 73 | 158 | 0.9 | 1.7 | 0.00 | 0.00 | 0.00 | 19 | 1011.0 |
| 20260504004008 | 72 | 349 | 0.0 | 4.3 | 0.00 | 0.00 | 0.00 | 18 | 1011.1 |
| 20260504003513 | 73 | 323 | 1.7 | 6.1 | 0.00 | 0.00 | 0.00 | 19 | 1011.2 |
| 20260504003026 | 73 | 279 | 2.6 | 6.1 | 0.00 | 0.00 | 0.00 | 20 | 1011.2 |
| 20260504002505 | 73 | 319 | 0.0 | 4.3 | 0.00 | 0.00 | 0.00 | 22 | 1011.2 |
| 20260504002010 | 73 | 315 | 1.7 | 4.3 | 0.00 | 0.00 | 0.00 | 19 | 1011.3 |
| 20260504001526 | 73 | 312 | 1.7 | 4.3 | 0.00 | 0.00 | 0.00 | 19 | 1011.3 |
| 20260504001011 | 73 | 339 | 0.0 | 9.6 | 0.00 | 0.00 | 0.00 | 21 | 1011.4 |
| 20260504000511 | 73 | 344 | 3.5 | 9.6 | 0.00 | 0.00 | 0.00 | 20 | 1011.5 |
| 20260504000020 | 73 | 26 | 2.6 | 7.8 | 0.00 | 0.00 | 0.00 | 20 | 1011.5 |
| 20260503235006 | 73 | 348 | 5.2 | 7.8 | 0.00 | 0.00 | 0.00 | 19 | 1011.6 |
| 20260503234527 | 73 | 317 | 0.9 | 7.8 | 0.00 | 0.00 | 0.00 | 19 | 1011.6 |
| 20260503234007 | 73 | 32 | 2.6 | 8.7 | 0.00 | 0.00 | 0.00 | 19 | 1011.7 |
| 20260503233508 | 74 | 15 | 3.5 | 9.6 | 0.00 | 0.00 | 0.00 | 21 | 1011.7 |
| 20260503233025 | 73 | 67 | 2.6 | 9.6 | 0.00 | 0.00 | 0.00 | 20 | 1011.7 |
| 20260503232509 | 73 | 22 | 3.5 | 9.6 | 0.00 | 0.00 | 0.00 | 19 | 1011.8 |
| 20260503232002 | 73 | 70 | 0.9 | 8.7 | 0.00 | 0.00 | 0.00 | 20 | 1011.9 |
| 20260503231516 | 72 | 93 | 1.7 | 8.7 | 0.00 | 0.00 | 0.00 | 17 | 1012.0 |
| 20260503231006 | 73 | 32 | 2.6 | 7.8 | 0.00 | 0.00 | 0.00 | 21 | 1012.0 |
| 20260503230507 | 73 | 348 | 4.3 | 8.7 | 0.00 | 0.00 | 0.00 | 20 | 1012.1 |
| 20260503230018 | 73 | 343 | 5.2 | 7.8 | 0.00 | 0.00 | 0.00 | 19 | 1012.2 |
| 20260503225511 | 73 | 352 | 4.3 | 7.0 | 0.00 | 0.00 | 0.00 | 20 | 1012.2 |
| 20260503225008 | 73 | 22 | 0.9 | 7.8 | 0.00 | 0.00 | 0.00 | 20 | 1012.3 |
| 20260503224523 | 73 | 15 | 4.3 | 7.8 | 0.00 | 0.00 | 0.00 | 20 | 1012.3 |
| 20260503224016 | 73 | 336 | 5.2 | 7.8 | 0.00 | 0.00 | 0.00 | 21 | 1012.4 |
| 20260503223511 | 74 | 271 | 1.7 | 6.1 | 0.00 | 0.00 | 0.00 | 20 | 1012.5 |
| 20260503223028 | 74 | 215 | 1.7 | 8.7 | 0.00 | 0.00 | 0.00 | 24 | 1012.5 |
| 20260503222506 | 74 | 162 | 5.2 | 8.7 | 0.00 | 0.00 | 0.00 | 20 | 1012.7 |
| 20260503222011 | 73 | 330 | 0.9 | 7.0 | 0.00 | 0.00 | 0.00 | 19 | 1012.7 |
| 20260503221528 | 74 | 238 | 3.5 | 7.0 | 0.00 | 0.00 | 0.00 | 25 | 1012.8 |
| 20260503221010 | 72 | 90 | 0.9 | 4.3 | 0.00 | 0.00 | 0.00 | 18 | 1012.9 |
| 20260503220509 | 73 | 105 | 1.7 | 7.0 | 0.00 | 0.00 | 0.00 | 19 | 1012.9 |
| 20260503220014 | 73 | 284 | 1.7 | 7.0 | 0.00 | 0.00 | 0.00 | 19 | 1013.1 |
| 20260503215503 | 73 | 344 | 0.9 | 6.1 | 0.00 | 0.00 | 0.00 | 18 | 1013.2 |